CW9692 Weather Reports


time (UTC)temp
C
wind
direction
speed
KPH
gust
KPH
rain 1hr
cm
rain 24hr
cm
rain mn
cm
humidity
%
barometer
mb
20260505083015 16 213 3.2 17.7 0.00 0.00 0.00 60 1011.9
20260505081519 16 224 4.8 17.7 0.00 0.00 0.00 60 1011.8
20260505080031 16 238 4.8 14.5 0.00 0.00 0.00 60 1011.8
20260505074502 16 199 4.8 19.3 0.00 0.00 0.00 60 1011.9
20260505073009 16 212 1.6 16.1 0.00 0.00 0.00 60 1011.9
20260505071512 16 169 3.2 17.7 0.00 0.00 0.00 59 1011.8
20260505070016 16 229 0.0 16.1 0.00 0.00 0.00 59 1011.8
20260505064520 16 183 3.2 17.7 0.00 0.00 0.00 59 1011.8
20260505063006 16 211 3.2 12.9 0.00 0.00 0.00 59 1011.9
20260505061512 16 219 0.0 0.0 0.00 0.00 0.00 59 1011.8
20260505060014 16 222 0.0 0.0 0.00 0.00 0.00 58 1011.9
20260505054521 17 222 0.0 8.0 0.00 0.00 0.00 57 1011.7
20260505053023 17 229 0.0 6.4 0.00 0.00 0.00 57 1011.8
20260505051506 17 216 3.2 11.3 0.00 0.00 0.00 56 1011.9
20260505041530 16 150 0.0 0.0 0.00 0.00 0.00 59 1011.9
20260505040013 15 146 0.0 0.0 0.00 0.00 0.00 60 1011.7
20260505034514 15 146 0.0 0.0 0.00 0.00 0.00 62 1011.7
20260505033020 15 146 0.0 0.0 0.00 0.00 0.00 64 1011.7
20260505031523 15 146 0.0 0.0 0.00 0.00 0.00 67 1011.7
20260505030026 16 146 0.0 0.0 0.00 0.00 0.00 68 1011.7
20260505024532 16 146 0.0 0.0 0.00 0.00 0.00 68 1011.8
20260505023016 16 146 0.0 0.0 0.00 0.00 0.00 67 1011.7
20260505021504 17 146 0.0 0.0 0.00 0.00 0.00 63 1011.7
20260505020004 17 147 0.0 0.0 0.00 0.00 0.00 59 1011.5
20260505014504 17 147 0.0 0.0 0.00 0.00 0.00 55 1011.5
20260505013011 17 146 0.0 0.0 0.00 0.00 0.00 57 1011.4
20260505011503 17 146 0.0 0.0 0.00 0.00 0.00 61 1011.3
20260505010004 17 146 0.0 0.0 0.00 0.00 0.00 62 1011.1
20260505004505 17 147 0.0 0.0 0.00 0.00 0.00 63 1011.1
20260505003004 18 147 0.0 0.0 0.00 0.00 0.00 63 1011.1
20260505001503 18 147 0.0 0.0 0.00 0.00 0.00 61 1011.1
20260505000005 19 147 0.0 0.0 0.00 0.00 0.00 59 1011.0
20260504234507 20 147 0.0 0.0 0.00 0.00 0.00 56 1011.0
20260504233006 20 147 0.0 11.3 0.00 0.00 0.00 54 1010.8
20260504231513 20 147 0.0 11.3 0.00 0.00 0.00 52 1010.9
20260504230008 20 141 3.2 11.3 0.00 0.00 0.00 51 1010.9
20260504224506 20 152 3.2 11.3 0.00 0.00 0.00 50 1010.8
20260504223004 20 172 4.8 22.5 0.00 0.00 0.00 48 1011.0
20260504221506 20 147 8.0 33.8 0.00 0.00 0.00 46 1010.9
20260504220016 21 165 9.7 24.1 0.00 0.00 0.00 43 1011.0
20260504214509 21 156 6.4 25.7 0.00 0.00 0.00 44 1011.0
20260504213008 21 129 6.4 29.0 0.00 0.00 0.00 43 1011.0
20260504211508 21 194 11.3 25.7 0.00 0.00 0.00 42 1010.9
20260504210008 22 144 6.4 22.5 0.00 0.00 0.00 41 1010.8
20260504204510 23 150 9.7 22.5 0.00 0.00 0.00 40 1010.8
20260504203020 24 150 6.4 22.5 0.00 0.00 0.00 37 1010.8
20260504201506 25 148 3.2 16.1 0.00 0.00 0.00 35 1011.0
20260504200010 25 149 1.6 16.1 0.00 0.00 0.00 31 1011.1
20260504194525 25 169 6.4 16.1 0.00 0.00 0.00 32 1011.2
20260504193016 25 255 0.0 9.7 0.00 0.00 0.00 33 1011.6
20260504191511 24 209 1.6 17.7 0.00 0.00 0.00 34 1011.9
20260504190010 23 179 0.0 17.7 0.00 0.00 0.00 34 1012.2
20260504184514 23 193 1.6 14.5 0.00 0.00 0.00 33 1012.4
20260504183012 23 202 0.0 16.1 0.00 0.00 0.00 34 1012.5
20260504181514 23 188 1.6 14.5 0.00 0.00 0.00 34 1012.8
20260504180019 23 161 0.0 17.7 0.00 0.00 0.00 34 1012.9
20260504174512 23 273 3.2 12.9 0.00 0.00 0.00 33 1013.1
20260504173020 23 220 1.6 14.5 0.00 0.00 0.00 35 1013.2
20260504171518 22 207 1.6 12.9 0.00 0.00 0.00 34 1013.4